International Skating Union - Official Site

ISU European Championships 2018
January 5-7, 2018

Draw | Lap Times | Index

Referee: Ekaterina  PILSHCHIKOVA  (RUS)
Starter: Roman  DANILOV  (RUS)
StartTime: EndTime: Air Temp: Ice Temp: Humidity:
18:06 19:37 15.1℃ -6.1℃ 39%
Result 5000m Men
Rankings as of Jan 6 2018 7:38PM
Rank: No.: Name: Nation: Time: Behind:
1 22 Nicola  Tumolero ITA ITA 6:16.85200m - 18.84 - (18.8)
600m - 48.32 - (29.4)
1000m - 1:18.10 - (29.7)
1400m - 1:47.95 - (29.8)
1800m - 2:17.53 - (29.5)
2200m - 2:47.38 - (29.8)
2600m - 3:17.24 - (29.8)
3000m - 3:46.99 - (29.7)
3400m - 4:16.83 - (29.8)
3800m - 4:46.76 - (29.9)
4200m - 5:16.76 - (30.0)
4600m - 5:46.67 - (29.9)
5000m - 6:16.85 - (30.1)
2 52 Alexander  Rumyantsev RUS RUS 6:18.13200m - 19.54 - (19.5)
600m - 49.29 - (29.7)
1000m - 1:19.18 - (29.8)
1400m - 1:49.21 - (30.0)
1800m - 2:19.22 - (30.0)
2200m - 2:49.09 - (29.8)
2600m - 3:19.01 - (29.9)
3000m - 3:48.61 - (29.6)
3400m - 4:18.14 - (29.5)
3800m - 4:47.65 - (29.5)
4200m - 5:17.34 - (29.6)
4600m - 5:47.27 - (29.9)
5000m - 6:18.13 - (30.8)
1.28
3 25 Marcel  Bosker NED NED 6:20.45200m - 18.64 - (18.6)
600m - 47.92 - (29.2)
1000m - 1:18.07 - (30.1)
1400m - 1:48.11 - (30.0)
1800m - 2:18.26 - (30.1)
2200m - 2:48.42 - (30.1)
2600m - 3:18.51 - (30.0)
3000m - 3:48.56 - (30.0)
3400m - 4:18.65 - (30.0)
3800m - 4:49.11 - (30.4)
4200m - 5:19.51 - (30.4)
4600m - 5:49.96 - (30.4)
5000m - 6:20.45 - (30.4)
3.60
4 24 Jan  Blokhuijsen NED NED 6:21.97200m - 18.98 - (18.9)
600m - 48.20 - (29.2)
1000m - 1:18.11 - (29.9)
1400m - 1:48.34 - (30.2)
1800m - 2:18.53 - (30.1)
2200m - 2:48.78 - (30.2)
2600m - 3:18.90 - (30.1)
3000m - 3:48.89 - (29.9)
3400m - 4:19.22 - (30.3)
3800m - 4:49.44 - (30.2)
4200m - 5:19.92 - (30.4)
4600m - 5:50.76 - (30.8)
5000m - 6:21.97 - (31.2)
5.12
5 53 Danila  Semerikov RUS RUS 6:24.14200m - 18.85 - (18.8)
600m - 48.51 - (29.6)
1000m - 1:18.62 - (30.1)
1400m - 1:48.93 - (30.3)
1800m - 2:19.49 - (30.5)
2200m - 2:49.88 - (30.3)
2600m - 3:20.30 - (30.4)
3000m - 3:51.02 - (30.7)
3400m - 4:21.60 - (30.5)
3800m - 4:52.27 - (30.6)
4200m - 5:22.66 - (30.3)
4600m - 5:53.25 - (30.5)
5000m - 6:24.14 - (30.8)
7.29
6 18 Davide  Ghiotto ITA ITA 6:29.08200m - 19.32 - (19.3)
600m - 48.74 - (29.4)
1000m - 1:18.76 - (30.0)
1400m - 1:48.80 - (30.0)
1800m - 2:19.25 - (30.4)
2200m - 2:49.27 - (30.0)
2600m - 3:19.87 - (30.6)
3000m - 3:50.54 - (30.6)
3400m - 4:21.41 - (30.8)
3800m - 4:52.53 - (31.1)
4200m - 5:24.13 - (31.6)
4600m - 5:55.96 - (31.8)
5000m - 6:29.08 - (33.1)
12.23
7 30 Simon  Schouten NED NED 6:30.08200m - 19.12 - (19.1)
600m - 49.75 - (30.6)
1000m - 1:20.73 - (30.9)
1400m - 1:51.68 - (30.9)
1800m - 2:22.28 - (30.6)
2200m - 2:52.98 - (30.7)
2600m - 3:23.78 - (30.8)
3000m - 3:54.45 - (30.6)
3400m - 4:24.99 - (30.5)
3800m - 4:55.73 - (30.7)
4200m - 5:26.70 - (30.9)
4600m - 5:57.93 - (31.2)
5000m - 6:30.08 - (32.1)
13.23
8 2 Linus  Heidegger AUT AUT 6:31.87200m - 19.48 - (19.4)
600m - 50.08 - (30.6)
1000m - 1:20.93 - (30.8)
1400m - 1:51.41 - (30.4)
1800m - 2:21.74 - (30.3)
2200m - 2:52.30 - (30.5)
2600m - 3:22.64 - (30.3)
3000m - 3:53.29 - (30.6)
3400m - 4:24.27 - (30.9)
3800m - 4:55.37 - (31.1)
4200m - 5:27.18 - (31.8)
4600m - 5:59.23 - (32.0)
5000m - 6:31.87 - (32.6)
15.02
9 39 Fredrik  van der Horst NOR NOR 6:32.41200m - 19.68 - (19.6)
600m - 50.14 - (30.4)
1000m - 1:20.61 - (30.4)
1400m - 1:50.68 - (30.0)
1800m - 2:21.05 - (30.3)
2200m - 2:51.65 - (30.6)
2600m - 3:22.35 - (30.7)
3000m - 3:53.16 - (30.8)
3400m - 4:24.68 - (31.5)
3800m - 4:56.14 - (31.4)
4200m - 5:28.20 - (32.0)
4600m - 6:00.45 - (32.2)
5000m - 6:32.41 - (31.9)
15.56
10 7 Vitaly  Mikhailov BLR BLR 6:36.06200m - 19.88 - (19.8)
600m - 50.24 - (30.3)
1000m - 1:21.19 - (30.9)
1400m - 1:52.45 - (31.2)
1800m - 2:23.45 - (31.0)
2200m - 2:54.67 - (31.2)
2600m - 3:25.87 - (31.2)
3000m - 3:57.50 - (31.6)
3400m - 4:28.98 - (31.4)
3800m - 5:00.68 - (31.7)
4200m - 5:32.48 - (31.8)
4600m - 6:04.45 - (31.9)
5000m - 6:36.06 - (31.6)
19.21
11 8 Sebastian  Druszkiewicz CZE CZE 6:36.67200m - 19.33 - (19.3)
600m - 49.45 - (30.1)
1000m - 1:19.91 - (30.4)
1400m - 1:50.77 - (30.8)
1800m - 2:21.41 - (30.6)
2200m - 2:52.49 - (31.0)
2600m - 3:23.81 - (31.3)
3000m - 3:55.46 - (31.6)
3400m - 4:27.46 - (32.0)
3800m - 4:59.40 - (31.9)
4200m - 5:31.24 - (31.8)
4600m - 6:03.64 - (32.4)
5000m - 6:36.67 - (33.0)
19.82
12 34 Magnus Bakken  Haugli NOR NOR 6:36.72200m - 19.20 - (19.2)
600m - 49.24 - (30.0)
1000m - 1:20.49 - (31.2)
1400m - 1:51.78 - (31.2)
1800m - 2:22.35 - (30.5)
2200m - 2:53.62 - (31.2)
2600m - 3:24.63 - (31.0)
3000m - 3:56.12 - (31.4)
3400m - 4:28.39 - (32.2)
3800m - 5:00.72 - (32.3)
4200m - 5:32.67 - (31.9)
4600m - 6:04.48 - (31.8)
5000m - 6:36.72 - (32.2)
19.87
13 54 Danil  Sinitsyn RUS RUS 6:37.08200m - 19.11 - (19.1)
600m - 48.63 - (29.5)
1000m - 1:19.03 - (30.4)
1400m - 1:49.38 - (30.3)
1800m - 2:19.67 - (30.2)
2200m - 2:50.31 - (30.6)
2600m - 3:21.07 - (30.7)
3000m - 3:52.34 - (31.2)
3400m - 4:24.06 - (31.7)
3800m - 4:56.56 - (32.5)
4200m - 5:29.46 - (32.9)
4600m - 6:03.04 - (33.5)
5000m - 6:37.08 - (34.0)
20.23
14 46 Jan  Szymanski POL POL 6:37.36200m - 19.28 - (19.2)
600m - 49.49 - (30.2)
1000m - 1:20.77 - (31.2)
1400m - 1:51.17 - (30.4)
1800m - 2:22.26 - (31.0)
2200m - 2:53.40 - (31.1)
2600m - 3:24.58 - (31.1)
3000m - 3:55.45 - (30.8)
3400m - 4:26.37 - (30.9)
3800m - 4:57.97 - (31.6)
4200m - 5:30.07 - (32.1)
4600m - 6:03.32 - (33.2)
5000m - 6:37.36 - (34.0)
20.51
15 19 Andrea  Giovannini ITA ITA 6:40.65200m - 18.38 - (18.3)
600m - 47.73 - (29.3)
1000m - 1:17.74 - (30.0)
1400m - 1:48.01 - (30.2)
1800m - 2:18.22 - (30.2)
2200m - 2:49.29 - (31.0)
2600m - 3:20.93 - (31.6)
3000m - 3:53.13 - (32.2)
3400m - 4:26.21 - (33.0)
3800m - 4:59.08 - (32.8)
4200m - 5:32.31 - (33.2)
4600m - 6:06.03 - (33.7)
5000m - 6:40.65 - (34.6)
23.80
16 47 Adrian  Wielgat POL POL 6:47.39200m - 19.56 - (19.5)
600m - 50.41 - (30.8)
1000m - 1:22.18 - (31.7)
1400m - 1:53.82 - (31.6)
1800m - 2:25.26 - (31.4)
2200m - 2:56.58 - (31.3)
2600m - 3:28.08 - (31.5)
3000m - 3:59.64 - (31.5)
3400m - 4:31.75 - (32.1)
3800m - 5:04.45 - (32.7)
4200m - 5:37.93 - (33.4)
4600m - 6:12.27 - (34.3)
5000m - 6:47.39 - (35.1)
30.54
17 33 Hallgeir  Engebråten NOR NOR 6:53.72200m - 20.02 - (20.0)
600m - 50.67 - (30.6)
1000m - 1:21.16 - (30.4)
1400m - 1:52.30 - (31.1)
1800m - 2:23.86 - (31.5)
2200m - 2:55.88 - (32.0)
2600m - 3:28.01 - (32.1)
3000m - 4:00.64 - (32.6)
3400m - 4:34.07 - (33.4)
3800m - 5:08.09 - (34.0)
4200m - 5:42.86 - (34.7)
4600m - 6:17.82 - (34.9)
5000m - 6:53.72 - (35.8)
36.87
18 3 Jordan  McMillen BEL BEL 6:58.25200m - 19.81 - (19.8)
600m - 50.64 - (30.8)
1000m - 1:22.48 - (31.8)
1400m - 1:54.49 - (32.0)
1800m - 2:26.44 - (31.9)
2200m - 2:58.67 - (32.2)
2600m - 3:31.35 - (32.6)
3000m - 4:04.37 - (33.0)
3400m - 4:38.07 - (33.7)
3800m - 5:12.50 - (34.4)
4200m - 5:47.55 - (35.0)
4600m - 6:22.43 - (34.8)
5000m - 6:58.25 - (35.8)
41.40